Location: Marse
(42.1502°N, 110.9866°W)
Time: 01:13:27
(UTC+00:00)

BEESAT - Pass Details

Date: 03 July 2022
Orbit: 700 x 706 km, 98.6° (Epoch: 16 August)

Event Time Altitude Azimuth Distance (km) Brightness Sun altitude
Rises 03:34:29 0° 17° (NNE) 3,104 ? -5.5°
Reaches altitude 10° 03:36:47 10° 21° (NNE) 2,182 ? -5.8°
Maximum altitude 03:41:31 60° 101° (ESE) 806 ? -6.5°
Drops below altitude 10° 03:46:12 10° 182° (S) 2,169 ? -7.2°
Sets 03:48:29 0° 186° (S) 3,084 ? -7.5°
